Terug naar catalogus

FENGYUN 1C DEB

ActiefPO
NORAD 32418·DEBRIS·🇨🇳 China

Gelanceerd May 10, 1999 vanaf Taiyuan Satellite Launch Center

Loading…

Volgende Passages (komende 24 uur)

TLE

VerouderdSource: Space-Track

Epoch: Sep 2, 2026, 08:41 UTC

1 32418U 99025DAE 26245.36197075  .00002530  00000-0  12947-2 0  9995
2 32418  98.1893  95.5580 0223507   9.7395 350.8001 14.04230796666878

Volg FENGYUN 1C DEB in realtime met AllMySat

Download on the App Store